Location: Most
(50.5133°N, 13.6207°E)
Time: 01:09:47
(UTC+01:00)

ISS - Pass Details

Date: 17 July 2018
Orbit: 401 x 408 km, 51.6° (Epoch: 20 November)

Event Time Altitude Azimuth Distance (km) Brightness Sun altitude
Exits shadow 01:49:51 22° 262° (W) 953 -2.1 -17.8°
Drops below altitude 10° 01:55:12 10° 77° (ENE) 1,496 -0.7 -17.6°
Enters shadow 03:02:08 -48° 274° (W) 9,966 3.1 -14.2°
Maximum altitude 03:28:34 78° 9° (N) 431 -3.6 -12.2°
